PA3DZX-13 Weather Reports


Display with metric or nautical units.
time (UTC)temp
F
wind
direction
speed
MPH
gust
MPH
rain 1hr
in
rain 24hr
in
rain mn
in
humidity
%
barometer
mb
20260510044154 39 279 0.0 0.0 0.00 0.00 0.00 99 1014.8
20260510042654 39 279 0.0 0.0 0.00 0.00 0.00 99 1014.8
20260510041153 39 279 0.0 2.0 0.00 0.00 0.00 99 1014.8
20260510035653 37 279 0.0 2.0 0.00 0.00 0.00 99 1014.9
20260510034153 37 81 0.0 0.0 0.00 0.00 0.00 99 1014.9
20260510032653 37 81 0.0 0.0 0.00 0.00 0.00 99 1015.0
20260510031153 39 81 0.0 0.0 0.00 0.00 0.00 99 1015.0
20260510025653 37 81 0.0 0.0 0.00 0.00 0.00 98 1015.1
20260510024153 39 81 0.0 0.0 0.00 0.00 0.00 99 1015.1
20260510022653 39 81 0.0 0.0 0.00 0.00 0.00 99 1015.1
20260510021153 39 81 0.0 0.0 0.00 0.00 0.00 99 1015.2
20260510015653 39 81 0.0 0.0 0.00 0.00 0.00 99 1015.2
20260510014153 41 81 0.0 0.0 0.00 0.00 0.00 99 1015.3
20260510012653 41 81 0.0 0.0 0.00 0.00 0.00 99 1015.2
20260510011153 41 81 0.0 0.0 0.00 0.00 0.00 99 1015.3
20260510005653 41 81 0.0 0.0 0.00 0.00 0.00 99 1015.4
20260510004153 41 81 0.0 0.0 0.00 0.00 0.00 99 1015.5
20260510002652 41 81 0.0 0.0 0.00 0.00 0.00 99 1015.6
20260510001152 42 81 0.0 2.0 0.00 0.00 0.00 99 1015.8
20260509235652 42 80 0.0 2.0 0.00 0.00 0.00 99 1015.9
20260509234153 42 80 0.0 2.0 0.00 0.00 0.00 99 1015.9
20260509232653 42 80 0.0 2.0 0.00 0.00 0.00 98 1016.0
20260509231151 42 81 0.0 2.0 0.00 0.00 0.00 98 1016.2
20260509225652 42 81 0.0 2.0 0.00 0.00 0.00 98 1016.3
20260509224151 44 81 0.0 2.0 0.00 0.00 0.00 96 1016.4
20260509222650 42 81 0.0 2.0 0.00 0.00 0.00 95 1016.3
20260509221151 46 313 0.0 0.0 0.00 0.00 0.00 94 1016.4
20260509215651 46 314 0.0 0.0 0.00 0.00 0.00 93 1016.3
20260509214150 48 313 0.0 0.0 0.00 0.00 0.00 87 1016.4
20260509212650 48 313 0.0 0.0 0.00 0.00 0.00 90 1016.5
20260509211149 50 313 0.0 0.0 0.00 0.00 0.00 85 1016.6
20260509205650 51 313 0.0 0.0 0.00 0.00 0.00 81 1016.8
20260509204149 51 313 0.0 0.0 0.00 0.00 0.00 80 1016.8
20260509202649 51 313 0.0 0.0 0.00 0.00 0.00 79 1016.8
20260509201149 53 313 0.0 0.0 0.00 0.00 0.00 72 1016.7
20260509195649 53 313 0.0 2.0 0.00 0.00 0.00 69 1016.4
20260509194148 55 314 2.0 4.0 0.00 0.00 0.00 64 1016.4
20260509192648 59 320 2.0 4.0 0.00 0.00 0.00 57 1016.4
20260509191147 59 330 4.0 6.0 0.00 0.00 0.00 53 1016.3
20260509185647 62 316 2.0 4.0 0.00 0.00 0.00 51 1016.3
20260509184146 62 327 2.0 6.0 0.00 0.00 0.00 50 1016.4
20260509182646 62 345 4.0 6.0 0.00 0.00 0.00 49 1016.2
20260509181146 64 295 2.0 6.0 0.00 0.00 0.00 44 1016.2
20260509175646 64 245 2.0 4.0 0.00 0.00 0.00 42 1016.2
20260509174145 64 16 4.0 6.0 0.00 0.00 0.00 46 1016.2
20260509172645 66 303 2.0 11.0 0.00 0.00 0.00 44 1016.0
20260509171145 66 259 2.0 6.0 0.00 0.00 0.00 40 1016.1
20260509165645 66 24 2.0 6.0 0.00 0.00 0.00 40 1016.1
20260509164144 66 29 2.0 4.0 0.00 0.00 0.00 42 1016.1
20260509162644 66 295 2.0 6.0 0.00 0.00 0.00 42 1016.1
20260509161143 66 342 2.0 6.0 0.00 0.00 0.00 43 1016.3
20260509155643 66 24 2.0 11.0 0.00 0.00 0.00 43 1016.4
20260509154143 64 344 4.0 8.0 0.00 0.00 0.00 43 1016.6
20260509152643 64 280 4.0 8.0 0.00 0.00 0.00 42 1016.8
20260509151142 66 255 4.0 11.0 0.00 0.00 0.00 44 1016.8
20260509145642 66 273 6.0 11.0 0.00 0.00 0.00 42 1016.8
20260509144141 64 215 4.0 8.0 0.00 0.00 0.00 39 1017.1
20260509142641 64 285 2.0 4.0 0.00 0.00 0.00 43 1017.1
20260509141140 64 273 2.0 8.0 0.00 0.00 0.00 45 1017.3
20260509135640 64 289 2.0 6.0 0.00 0.00 0.00 47 1017.4
20260509134140 62 180 4.0 8.0 0.00 0.00 0.00 48 1017.7
20260509132640 62 175 4.0 8.0 0.00 0.00 0.00 45 1017.8
20260509131139 62 299 2.0 4.0 0.00 0.00 0.00 50 1018.0
20260509125639 62 68 2.0 8.0 0.00 0.00 0.00 52 1018.2
20260509124138 60 129 4.0 8.0 0.00 0.00 0.00 51 1018.3
20260509122638 60 77 4.0 8.0 0.00 0.00 0.00 52 1018.4
20260509121137 62 71 0.0 6.0 0.00 0.00 0.00 51 1018.5
20260509115638 62 183 2.0 11.0 0.00 0.00 0.00 51 1018.6
20260509114136 60 81 2.0 6.0 0.00 0.00 0.00 53 1018.8
20260509112637 60 192 4.0 8.0 0.00 0.00 0.00 54 1019.0
20260509111136 59 127 4.0 8.0 0.00 0.00 0.00 54 1019.1
20260509105636 59 142 4.0 8.0 0.00 0.00 0.00 56 1019.3
20260509104136 59 109 2.0 11.0 0.00 0.00 0.00 63 1019.3
20260509102635 60 128 4.0 11.0 0.00 0.00 0.00 60 1019.3
20260509101135 60 83 2.0 8.0 0.00 0.00 0.00 63 1019.4
20260509095635 59 166 0.0 8.0 0.00 0.00 0.00 66 1019.4
20260509094134 55 83 4.0 8.0 0.00 0.00 0.00 69 1019.5
20260509092634 55 36 4.0 8.0 0.00 0.00 0.00 72 1019.5
20260509091134 55 39 4.0 8.0 0.00 0.00 0.00 73 1019.5
20260509085633 53 46 4.0 8.0 0.00 0.00 0.00 77 1019.6
20260509084133 53 28 6.0 8.0 0.00 0.00 0.00 77 1019.7
20260509082633 53 55 4.0 8.0 0.00 0.00 0.00 78 1019.7
20260509081132 53 37 4.0 8.0 0.00 0.00 0.00 78 1019.8
20260509075633 53 35 4.0 6.0 0.00 0.00 0.00 79 1019.8
20260509074132 51 71 2.0 6.0 0.00 0.00 0.00 79 1019.8
20260509072632 51 94 2.0 6.0 0.00 0.00 0.00 79 1019.9
20260509071131 51 66 2.0 6.0 0.00 0.00 0.00 81 1020.0
20260509065631 50 68 2.0 6.0 0.00 0.00 0.00 80 1020.0
20260509064131 50 66 4.0 8.0 0.00 0.00 0.00 84 1019.8
20260509062630 48 65 4.0 8.0 0.00 0.00 0.00 87 1019.8
20260509061129 48 58 6.0 8.0 0.00 0.00 0.00 89 1019.7
20260509055630 46 61 4.0 8.0 0.00 0.00 0.00 92 1019.6
20260509054129 46 54 4.0 6.0 0.00 0.00 0.00 96 1019.5
20260509052629 42 55 2.0 6.0 0.00 0.00 0.00 99 1019.5
20260509051128 41 57 4.0 6.0 0.00 0.00 0.00 99 1019.5
20260509045628 41 62 4.0 4.0 0.00 0.00 0.00 99 1019.4